EW6342 Weather Reports


Display with metric or nautical units.
time (UTC)temp
F
wind
direction
speed
MPH
gust
MPH
rain 1hr
in
rain 24hr
in
rain mn
in
humidity
%
barometer
mb
20220818134054 82 22 0.0 0.0 0.00 0.00 0.00 30 1014.0
20220818132609 81 14 0.0 0.0 0.00 0.00 0.00 22 1013.9
20220818131106 80 14 0.0 0.0 0.00 0.00 0.00 23 1013.5
20220818125626 80 13 0.0 0.0 0.00 0.00 0.00 24 1013.5
20220818124142 79 14 0.0 0.0 0.00 0.00 0.00 23 1013.6
20220818124100 79 14 0.0 0.0 0.00 0.00 0.00 23 1013.6
20220818122617 79 105 0.0 0.0 0.00 0.00 0.00 20 1013.7
20220818121134 79 105 0.0 0.0 0.00 0.00 0.00 19 1013.2
20220818115609 79 210 0.0 0.0 0.00 0.00 0.00 20 1012.7
20220818114048 79 11 0.0 0.0 0.00 0.00 0.00 18 1012.7
20220818112607 79 29 0.0 0.0 0.00 0.00 0.00 19 1013.1
20220818111142 79 29 0.0 0.0 0.00 0.00 0.00 22 1013.2
20220818111100 79 29 0.0 0.0 0.00 0.00 0.00 22 1013.2
20220818105639 79 22 0.0 0.0 0.00 0.00 0.00 25 1013.2
20220818104114 79 22 0.0 0.0 0.00 0.00 0.00 29 1013.1
20220818102552 79 23 0.0 0.0 0.00 0.00 0.00 33 1013.3
20220818101129 80 22 0.0 0.0 0.00 0.00 0.00 37 1013.4
20220818101047 80 22 0.0 0.0 0.00 0.00 0.00 37 1013.4
20220818095546 80 22 0.0 0.0 0.00 0.00 0.00 42 1013.7
20220818094104 81 22 0.0 0.0 0.00 0.00 0.00 44 1013.9
20220818092619 81 22 0.0 0.0 0.00 0.00 0.00 47 1014.1
20220818091058 82 11 0.0 1.0 0.00 0.00 0.00 48 1014.2
20220818085640 82 5 0.0 0.0 0.00 0.00 0.00 43 1014.3
20220818084135 83 39 0.0 0.0 0.00 0.00 0.00 32 1014.3
20220818084053 83 39 0.0 0.0 0.00 0.00 0.00 32 1014.3
20220818082630 83 39 0.0 0.0 0.00 0.00 0.00 36 1014.5
20220818082547 83 39 0.0 0.0 0.00 0.00 0.00 36 1014.5
20220818081045 83 38 0.0 0.0 0.00 0.00 0.00 37 1014.2
20220818075605 83 38 0.0 0.0 0.00 0.00 0.00 40 1014.3
20220818074059 84 38 0.0 0.0 0.00 0.00 0.00 40 1014.4
20220818072617 84 38 0.0 0.0 0.00 0.00 0.00 38 1014.4
20220818071032 83 33 0.0 0.0 0.00 0.00 0.00 35 1014.4
20220818065627 83 215 0.0 0.0 0.00 0.00 0.00 35 1013.7
20220818064107 84 218 0.0 0.0 0.00 0.00 0.00 35 1013.4
20220818062623 84 218 0.0 0.0 0.00 0.00 0.00 36 1013.2
20220818061057 84 225 0.0 0.0 0.00 0.00 0.00 39 1013.1
20220818055614 84 236 0.0 0.0 0.00 0.00 0.00 41 1013.0
20220818054111 84 227 0.0 0.0 0.00 0.00 0.00 44 1013.0
20220818052631 85 95 0.0 1.0 0.00 0.00 0.00 47 1013.0
20220818051044 85 29 0.0 0.0 0.00 0.00 0.00 50 1012.9
20220818045626 86 259 0.0 2.0 0.00 0.00 0.00 51 1012.8
20220818044141 86 161 0.0 0.0 0.00 0.00 0.00 52 1012.8
20220818042635 87 228 0.0 0.0 0.00 0.00 0.00 53 1012.7
20220818041115 88 125 0.0 0.0 0.00 0.00 0.00 54 1012.7
20220818035610 88 180 0.0 0.0 0.00 0.00 0.00 56 1012.4
20220818034105 89 276 0.0 0.0 0.00 0.00 0.00 56 1012.4
20220818032541 89 175 0.0 1.0 0.00 0.00 0.00 57 1012.3
20220818031057 90 202 0.0 0.0 0.00 0.00 0.00 58 1012.0
20220818025557 90 223 0.0 0.0 0.00 0.00 0.00 59 1012.1
20220818024112 91 214 0.0 1.0 0.00 0.00 0.00 59 1011.7
20220818022547 92 199 0.0 0.0 0.00 0.00 0.00 57 1011.4
20220818021123 92 175 0.0 0.0 0.00 0.00 0.00 52 1011.3
20220818015639 93 124 0.0 0.0 0.00 0.00 0.00 51 1011.1
20220818015557 93 124 0.0 0.0 0.00 0.00 0.00 51 1011.1
20220818014118 94 110 0.0 1.0 0.00 0.00 0.00 50 1011.3
20220818012635 94 145 0.0 0.0 0.00 0.00 0.00 50 1011.1
20220818011049 95 175 0.0 0.0 0.00 0.00 0.00 48 1011.2
20220818005544 96 113 0.0 0.0 0.00 0.00 0.00 45 1011.2
20220818004143 97 200 0.0 0.0 0.00 0.00 0.00 42 1011.0
20220818004100 97 200 0.0 0.0 0.00 0.00 0.00 42 1011.0
20220818002642 97 200 0.0 0.0 0.00 0.00 0.00 40 1011.0
20220818001116 98 131 0.0 0.0 0.00 0.00 0.00 40 1011.0
20220817235555 99 151 0.0 0.0 0.00 0.00 0.00 40 1011.1
20220817234131 99 220 0.0 0.0 0.00 0.00 0.00 39 1011.2
20220817234049 99 220 0.0 0.0 0.00 0.00 0.00 39 1011.2
20220817232626 100 199 0.0 0.0 0.00 0.00 0.00 39 1011.2
20220817231044 101 194 0.0 0.0 0.00 0.00 0.00 38 1011.1
20220817225601 101 111 0.0 0.0 0.00 0.00 0.00 37 1011.1
20220817224117 102 226 0.0 0.0 0.00 0.00 0.00 36 1011.2
20220817222636 102 207 0.0 0.0 0.00 0.00 0.00 35 1011.3
20220817222553 102 207 0.0 0.0 0.00 0.00 0.00 35 1011.3
20220817221132 102 210 0.0 3.0 0.00 0.00 0.00 35 1011.4
20220817221049 102 210 0.0 3.0 0.00 0.00 0.00 35 1011.4
20220817215613 103 185 0.0 0.0 0.00 0.00 0.00 34 1011.6
20220817214048 103 103 0.0 0.0 0.00 0.00 0.00 36 1011.6
20220817212628 104 54 0.0 0.0 0.00 0.00 0.00 35 1011.8
20220817212546 104 54 0.0 0.0 0.00 0.00 0.00 35 1011.8
20220817211041 105 22 0.0 0.0 0.00 0.00 0.00 34 1011.9
20220817205641 106 16 0.0 0.0 0.00 0.00 0.00 34 1012.1
20220817204059 106 101 0.0 0.0 0.00 0.00 0.00 34 1012.2
20220817202637 105 226 0.0 0.0 0.00 0.00 0.00 35 1012.5
20220817201050 105 185 0.0 0.0 0.00 0.00 0.00 35 1012.6
20220817195610 107 277 0.0 1.0 0.00 0.00 0.00 34 1012.9
20220817194045 108 109 0.0 0.0 0.00 0.00 0.00 34 1013.0
20220817192606 107 147 0.0 2.0 0.00 0.00 0.00 33 1013.2
20220817191043 105 6 0.0 0.0 0.00 0.00 0.00 35 1013.3
20220817185625 106 355 0.0 0.0 0.00 0.00 0.00 34 1013.5
20220817185542 106 355 0.0 0.0 0.00 0.00 0.00 34 1013.5
20220817184141 107 301 0.0 0.0 0.00 0.00 0.00 35 1013.7
20220817184058 107 301 0.0 0.0 0.00 0.00 0.00 35 1013.7
20220817182637 106 218 0.0 0.0 0.00 0.00 0.00 37 1013.9
20220817182555 106 218 0.0 0.0 0.00 0.00 0.00 37 1013.9
20220817181056 104 317 0.0 1.0 0.00 0.00 0.00 40 1014.2
20220817175615 104 237 0.0 3.0 0.00 0.00 0.00 39 1014.4
20220817174049 102 163 0.0 1.0 0.00 0.00 0.00 43 1014.5
20220817172545 101 293 0.0 1.0 0.00 0.00 0.00 46 1014.7
20220817171046 98 247 0.0 0.0 0.00 0.00 0.00 48 1015.0
20220817165602 98 192 0.0 1.0 0.00 0.00 0.00 50 1015.1
20220817164119 97 197 0.0 0.0 0.00 0.00 0.00 51 1015.2
20220817162555 95 175 0.0 1.0 0.00 0.00 0.00 54 1015.5
20220817161132 94 185 0.0 0.0 0.00 0.00 0.00 56 1015.5
20220817155612 93 233 0.0 0.0 0.00 0.00 0.00 57 1015.5
20220817154114 92 204 0.0 0.0 0.00 0.00 0.00 59 1015.7
20220817152630 91 200 0.0 3.0 0.00 0.00 0.00 59 1015.8
20220817151125 90 260 0.0 0.0 0.00 0.00 0.00 56 1015.8
20220817145625 88 264 0.0 0.0 0.00 0.00 0.00 48 1015.8
20220817145542 88 264 0.0 0.0 0.00 0.00 0.00 48 1015.8
20220817144139 87 175 0.0 0.0 0.00 0.00 0.00 32 1015.8
20220817142555 85 185 0.0 0.0 0.00 0.00 0.00 3 1015.9
20220817141133 84 220 0.0 0.0 0.00 0.00 0.00 3 1015.8
20220817135629 82 246 0.0 1.0 0.00 0.00 0.00 3 1015.7